"Pseudo-MPEC" for P21WMBE

Created 2024 Aug 3 9:22:15 UT using Find_Orb

Click here for an explanation of pseudo-MPECs

 
 Astrometry: 
     P21WMBE* C2024 08 01.58716201 20 11.032-11 01 28.66   ~81Gq 20.19wXNEOCPF52
     P21WMBE  C2024 08 01.59769801 20 10.842-11 01 15.84   ~81Gq 20.24wXNEOCPF52
     P21WMBE  C2024 08 01.60825001 20 10.649-11 01 02.94   ~81Gq 20.16wXNEOCPF52
     P21WMBE KC2024 08 02.35222801 19 59.37 -10 45 56.8    ~82G7 20.3 GVNEOCPH21
     P21WMBE KC2024 08 02.35502401 19 59.29 -10 45 53.1    ~82G7 20.1 GVNEOCPH21
     P21WMBE KC2024 08 02.35782101 19 59.23 -10 45 49.8    ~82G7 20.2 GVNEOCPH21
     P21WMBE KC2024 08 02.36061801 19 59.18 -10 45 46.2    ~82G7 20.2 GVNEOCPH21
     P21WMBE KC2024 08 02.36341501 19 59.12 -10 45 42.8    ~82G7 20.1 GVNEOCPH21
     P21WMBE 3C2024 08 02.54112401 19 56.183-10 42 02.96   ~82Db 19.96GVNEOCPT14
     P21WMBE 3C2024 08 02.54210001 19 56.163-10 42 01.76   ~82Db 19.94GVNEOCPT14
     P21WMBE 3C2024 08 02.54307701 19 56.143-10 42 00.59   ~82Db 19.93GVNEOCPT14
     P21WMBE KC2024 08 02.65035 01 19 54.163-10 39 39.53   ~82H7 20.0 GVNEOCPR65
     P21WMBE KC2024 08 02.65522 01 19 54.098-10 39 33.70   ~82H7 19.6 GVNEOCPR65
     P21WMBE KC2024 08 02.66010 01 19 53.978-10 39 27.72   ~82H7 19.6 GVNEOCPR65

Station data:
(F52) Pan-STARRS 2, Haleakala  (N20.707382 W156.255910)  US/Hawaii.
   Observers J. Bulger, T. Dukes, T. Lowe, A. Schultz, M. Willman. Measurers
   K. Chambers, S. Chastel, T. de Boer, L. Denneau, J. Fairlamb, H.
   Flewelling, M. Huber, C.-C. Lin, E. Magnier, Y. Ramanjooloo, R. Wainscoat,
   R. Weryk. 1.8-m Ritchey-Chrétien + CCD.
(H21) Astronomical Research Observatory, Westfield  (N39.483054 W87.968270)
   US/Illinois.  Observer R. Holmes. Measurers S. Foglia, L. Buzzi, T.
   Linder, R. Holmes. 0.76-m f/3.0 astrograph + CCD0.81-m f/4.0 astrograph +
   CCD0.61-m f/4.5 astrograph + CCD0.40-m f/5.32 astrograph + CCD.
(R65) R. F. Joyce Observatory, Christchurch  (S43.498731 E172.349810)  New
   Zealand.  Observer R. B. Glassey.
(T14) Mauna Kea-UH/Tholen NEO Follow-Up (CFHT)  (N19.825252 W155.468876)
   US/Hawaii.  Observer R. Weryk. 3.6-m Canada-France-Hawaii Telescope.

Orbital elements:  P21WMBE
   Perihelion 2024 Jun 27.50746 +/- 72.4 TT = 12:10:44 (JD 2460489.00746)
Epoch 2024 Aug  2.0 TT = JDT 2460524.5   Earth MOID: 0.6953      AutoNEOCP
M  10.83720988 +/- 25               (J2000 ecliptic)
n   0.30533768 +/- 0.106            Peri.  324.16974 +/- 43
a   2.18414990 +/- 0.505            Node   354.86130 +/- 2.2
e   0.2414932 +/- 0.166             Incl.   36.13400 +/- 6
P   3.22793                H 17.77  G  0.15   U 11.2  SR
q 1.65669234 +/- 0.144    Q 2.71160746 +/- 1.65
From 14 observations 2024 Aug. 1-2 (25.8 hr); mean residual 0".21
Residuals in arcseconds: 
240801 F52  .04+  .06-    240802 H21  .13+  .23+    240802 T14  .02-  .03-    
240801 F52  .00   .03-    240802 H21  .19+  .42+    240802 R65  .14-  .01+    
240801 F52  .07-  .04+    240802 H21  .10+  .40+    240802 R65  .35+  .13-    
240802 H21  .61+  .06+    240802 T14  .02-  .01-    240802 R65  .04+  .13-    
240802 H21  .22+  .34+    240802 T14  .02-  .00     

Ephemerides (geocentric):
Date (UTC) HH   RA             Dec           delta  r     elong  mag " sig PA
---- --------  ------------   ------------  ------ ------ -----  --- --------
2024 08 03 09  01 19 40.482   -10 24 51.80  .96383 1.6742 115.6 20.2 5.49 178
2024 08 03 10  01 19 39.654   -10 24 00.29  .96348 1.6742 115.6 20.2 5.92 178
2024 08 03 11  01 19 38.821   -10 23 08.76  .96312 1.6742 115.6 20.2 6.36 179
2024 08 03 12  01 19 37.982   -10 22 17.21  .96276 1.6743 115.7 20.2 6.82 179
2024 08 03 13  01 19 37.138   -10 21 25.64  .96240 1.6743 115.7 20.2 7.28 179
2024 08 03 14  01 19 36.288   -10 20 34.06  .96204 1.6744 115.8 20.2 7.77 179
2024 08 03 15  01 19 35.433   -10 19 42.45  .96169 1.6744 115.8 20.2 8.26 179
2024 08 03 16  01 19 34.572   -10 18 50.82  .96133 1.6744 115.8 20.2 8.77 179
2024 08 03 17  01 19 33.706   -10 17 59.18  .96097 1.6745 115.9 20.2 9.30 179
2024 08 03 18  01 19 32.834   -10 17 07.51  .96062 1.6745 115.9 20.2 9.84   0
2024 08 03 19  01 19 31.956   -10 16 15.83  .96026 1.6746 115.9 20.2 10.4   0
2024 08 03 20  01 19 31.074   -10 15 24.12  .95990 1.6746 116.0 20.2 11.0   0
2024 08 03 21  01 19 30.185   -10 14 32.40  .95955 1.6746 116.0 20.2 11.5   0
2024 08 03 22  01 19 29.291   -10 13 40.65  .95919 1.6747 116.1 20.2 12.1   0
2024 08 03 23  01 19 28.392   -10 12 48.89  .95883 1.6747 116.1 20.2 12.7   0
2024 08 04 00  01 19 27.487   -10 11 57.10  .95848 1.6748 116.1 20.2 13.4   0
2024 08 04 01  01 19 26.576   -10 11 05.30  .95812 1.6748 116.2 20.2 14.0   0
2024 08 04 02  01 19 25.660   -10 10 13.47  .95777 1.6748 116.2 20.2 14.6   0
2024 08 04 03  01 19 24.738   -10 09 21.63  .95741 1.6749 116.2 20.2 15.3   0
2024 08 04 04  01 19 23.811   -10 08 29.76  .95706 1.6749 116.3 20.2 16.0   1
2024 08 04 05  01 19 22.878   -10 07 37.88  .95670 1.6749 116.3 20.2 16.7   1
2024 08 04 06  01 19 21.940   -10 06 45.98  .95634 1.6750 116.4 20.2 17.4   1
2024 08 04 07  01 19 20.996   -10 05 54.05  .95599 1.6750 116.4 20.2 18.1   1
2024 08 04 08  01 19 20.046   -10 05 02.11  .95563 1.6751 116.4 20.2 18.8   1
2024 08 04 09  01 19 19.091   -10 04 10.14  .95528 1.6751 116.5 20.2 19.6   1
2024 08 04 10  01 19 18.131   -10 03 18.16  .95492 1.6751 116.5 20.2 20.4   1
2024 08 04 11  01 19 17.164   -10 02 26.15  .95457 1.6752 116.5 20.2 21.1   1
2024 08 04 12  01 19 16.192   -10 01 34.13  .95422 1.6752 116.6 20.2 21.9   1
2024 08 04 13  01 19 15.215   -10 00 42.08  .95386 1.6753 116.6 20.2 22.7   1
2024 08 04 14  01 19 14.232   -09 59 50.02  .95351 1.6753 116.7 20.2 23.6   1
2024 08 04 15  01 19 13.243   -09 58 57.93  .95315 1.6753 116.7 20.2 24.4   1
2024 08 04 16  01 19 12.249   -09 58 05.82  .95280 1.6754 116.7 20.2 25.2   1
2024 08 04 17  01 19 11.249   -09 57 13.70  .95245 1.6754 116.8 20.2 26.1   1
2024 08 04 18  01 19 10.244   -09 56 21.55  .95209 1.6755 116.8 20.2 27.0   2
2024 08 04 19  01 19 09.232   -09 55 29.38  .95174 1.6755 116.9 20.2 27.9   2
2024 08 04 20  01 19 08.216   -09 54 37.20  .95138 1.6756 116.9 20.2 28.8   2
2024 08 04 21  01 19 07.193   -09 53 44.99  .95103 1.6756 116.9 20.2 29.7   2
2024 08 04 22  01 19 06.165   -09 52 52.76  .95068 1.6756 117.0 20.2 30.6   2
2024 08 04 23  01 19 05.132   -09 52 00.51  .95033 1.6757 117.0 20.2 31.6   2
2024 08 05 00  01 19 04.092   -09 51 08.24  .94997 1.6757 117.0 20.2 32.6   2
2024 08 05 01  01 19 03.048   -09 50 15.95  .94962 1.6758 117.1 20.2 33.5   2
2024 08 05 02  01 19 01.997   -09 49 23.64  .94927 1.6758 117.1 20.2 34.5   2
2024 08 05 03  01 19 00.941   -09 48 31.31  .94891 1.6758 117.2 20.2 35.5   2
2024 08 05 04  01 18 59.879   -09 47 38.96  .94856 1.6759 117.2 20.2 36.6   2
2024 08 05 05  01 18 58.811   -09 46 46.59  .94821 1.6759 117.2 20.2 37.6   2
2024 08 05 06  01 18 57.738   -09 45 54.19  .94786 1.6760 117.3 20.1 38.7   2
2024 08 05 07  01 18 56.659   -09 45 01.78  .94751 1.6760 117.3 20.1 39.7   2
2024 08 05 08  01 18 55.575   -09 44 09.34  .94715 1.6760 117.4 20.1 40.8   2